Satellite-Ground Cal/Val Site Overpasses Predictions

Prediction of Satellite NPP Overpassing Cal/Val Site: Antarctic Dome C

Ground Cal/Val Site Location: Latitude: -75.10, Longitude: 123.35; Satellite-Ground Site NADIR distance within 100 km.

Table of predicted overpasses for the next 14.0 days since TLE Epoch: 11/30/2012
Interval Starting Time Ending Time Minimum Distance Time Minimum Distance (km)
1 12/01/2012 14:52:54 12/01/2012 14:53:23 12/01/2012 14:53:08 21.50
2 12/02/2012 14:34:11 12/02/2012 14:34:26 12/02/2012 14:34:19 85.64
3 12/03/2012 07:35:44 12/03/2012 07:36:11 12/03/2012 07:35:58 35.20
4 12/04/2012 07:16:59 12/04/2012 07:17:18 12/04/2012 07:17:08 75.00
5 12/06/2012 14:59:13 12/06/2012 14:59:36 12/06/2012 14:59:25 58.37
6 12/07/2012 14:40:22 12/07/2012 14:40:47 12/07/2012 14:40:34 50.85
7 12/08/2012 07:42:03 12/08/2012 07:42:23 12/08/2012 07:42:13 70.15
8 12/09/2012 07:23:09 12/09/2012 07:23:36 12/09/2012 07:23:23 37.80
9 12/11/2012 15:05:35 12/11/2012 15:05:43 12/11/2012 15:05:39 95.82
10 12/12/2012 14:46:35 12/12/2012 14:47:04 12/12/2012 14:4
